[[{"header":{"parameterUnit":"m.s-1","parameterCategory":2,"la1":30.2991,"la2":30.254,"lo1":-89.0895,"lo2":-89.0444,"dy":0.0017,"dx":0.0017,"nx":28,"ny":28,"refTime":"2024-12-01T09:00:00:Z","depth":"0","parameterNumber":2,"parameterNumberName":"U-component_of_CURRENTS"},"data":[0,0,0,0,0,0,0,0,0,0,0,0,0,0,0,0,0,0,0,0,0,0,0,0,0,0,0,0,0,0,0,0,0,0,0,0,0,0,0,0,0,0,0,0,0,0,0,0,0,0,0,0,0,0,0,0,0,0,-0.2836,-0.2836,0,-0.2818,-0.2817,-0.2816,-0.2744,-0.2743,-0.2742,-0.2741,-0.2596,-0.2594,-0.2591,0,0,0,0,0,0,0,0,0,0,0,0,0,-0.2774,-0.2776,-0.2836,-0.2836,-0.2837,-0.2818,-0.2817,-0.2816,-0.2744,-0.2743,-0.2742,-0.274,-0.2597,-0.2594,-0.2591,0,0,0,0,0,0,0,0,0,0,0,0,0,-0.2778,-0.2776,-0.2836,-0.2803,-0.28,-0.2818,-0.2817,-0.2816,-0.2745,-0.2743,-0.2741,-0.274,-0.2598,-0.2594,-0.259,-0.2598,0,0,-0.2577,-0.2576,0,0,0,0,0,0,0,0,-0.2778,-0.2779,-0.2807,-0.2805,-0.2802,-0.2787,-0.2743,-0.2739,-0.2745,-0.276,-0.2741,-0.2739,-0.2653,-0.2645,-0.2638,-0.2591,-0.2585,-0.2577,-0.2574,-0.2573,-0.2571,0,0,0,0,0,0,0,-0.2777,-0.278,-0.2823,-0.2808,-0.2805,-0.2778,-0.2776,-0.2741,-0.2709,-0.2758,-0.2754,-0.2762,-0.265,-0.2643,-0.2634,-0.2583,-0.2577,-0.2573,-0.2571,-0.2569,-0.2546,-0.2548,0,0,0,0,0,0,-0.2796,-0.278,-0.2823,-0.2823,-0.2792,-0.2781,-0.2778,-0.2789,-0.2712,-0.2702,-0.2764,-0.2759,-0.2651,-0.2639,-0.2629,-0.2633,-0.2573,-0.2569,-0.2566,-0.2544,-0.2547,-0.2549,0,0,0,0,0,0,-0.2795,-0.28,-0.2824,-0.2805,-0.2807,-0.2784,-0.2796,-0.2789,-0.2777,-0.2719,-0.2704,-0.2758,-0.2649,-0.2635,-0.2606,-0.2627,-0.2567,-0.2563,-0.2542,-0.2545,-0.2548,-0.2642,0,0,0,0,0,0,-0.2793,-0.28,-0.2808,-0.2807,-0.2809,-0.2832,-0.2798,-0.279,-0.2787,-0.278,-0.2709,-0.2695,-0.2646,-0.2613,-0.2602,-0.262,-0.256,-0.254,-0.2544,-0.2547,-0.2636,-0.2648,-0.2657,0,0,0,0,0,-0.2791,-0.2802,-0.2809,-0.2814,-0.2823,-0.2833,-0.2831,-0.2804,-0.2789,-0.2786,-0.2748,-0.2696,-0.2628,-0.2611,-0.2598,-0.2615,-0.2538,-0.2542,-0.2547,-0.2632,-0.2646,-0.2657,0,0,0,0,0,0,-0.2768,-0.2797,-0.2803,-0.282,-0.283,-0.2823,-0.2816,-0.2813,-0.2784,-0.277,-0.2713,-0.2697,-0.2683,-0.2644,-0.2626,-0.2623,-0.2578,-0.258,-0.2647,-0.266,-0.267,-0.2676,-0.2556,0,0,0,0,0,-0.2777,-0.2798,-0.2817,-0.2832,-0.2834,-0.2831,-0.2832,-0.2823,-0.2804,-0.2789,-0.2751,-0.2714,-0.2695,-0.2671,-0.2642,-0.2634,-0.2589,-0.2641,-0.2652,-0.2661,-0.266,-0.2649,-0.2658,-0.2563,-0.2563,-0.2563,0,0,-0.278,-0.2793,-0.2809,-0.283,-0.2828,-0.2838,-0.2824,-0.2827,-0.2841,-0.2778,-0.277,-0.2745,-0.2703,-0.2698,-0.2689,-0.2662,-0.2658,-0.2666,-0.2674,-0.2668,-0.2654,-0.2663,-0.2671,-0.2566,-0.2565,-0.2565,0,0,-0.277,-0.2801,-0.2801,-0.282,-0.2831,-0.2841,-0.2848,-0.285,-0.285,-0.2854,-0.2823,-0.282,-0.2772,-0.2762,-0.2747,-0.2801,-0.2718,-0.279,-0.2838,-0.2828,-0.2835,-0.2841,-0.2766,-0.2764,-0.2791,-0.2791,-0.2791,0,-0.2758,-0.2779,-0.2802,-0.2805,-0.2829,-0.2846,-0.2856,-0.2869,-0.2867,-0.2883,-0.2856,-0.2844,-0.2807,-0.2824,-0.2842,-0.2823,-0.2778,-0.2791,-0.284,-0.2845,-0.285,-0.2771,-0.2769,-0.2796,-0.2795,-0.2795,-0.2794,0,-0.2752,-0.2771,-0.2773,-0.2796,-0.2823,-0.2841,-0.2878,-0.2901,-0.2912,-0.2928,-0.2952,-0.2924,-0.2914,-0.2917,-0.2887,-0.2916,-0.2859,-0.2858,-0.2805,-0.2865,-0.2778,-0.2773,-0.2803,-0.2801,-0.28,-0.2799,0,0,-0.2709,-0.2757,-0.2758,-0.2778,-0.2829,-0.285,-0.2898,-0.2948,-0.297,-0.2993,-0.3009,-0.3027,-0.3022,-0.3008,-0.2988,-0.2985,-0.297,-0.2934,-0.2932,-0.2852,-0.2894,-0.2783,-0.2765,-0.2976,-0.2977,-0.2977,-0.2809,0,-0.2688,-0.2702,-0.2744,-0.2781,-0.2796,-0.2862,-0.2905,-0.2962,-0.2992,-0.3009,-0.3037,-0.3035,-0.3055,-0.3037,-0.3052,-0.2979,-0.2967,-0.3012,-0.2854,-0.2847,-0.2737,-0.2761,-0.2653,-0.2489,-0.2804,-0.2803,-0.2802,0,-0.2659,-0.2681,-0.2707,-0.2784,-0.2798,-0.2829,-0.2917,-0.2956,-0.3012,-0.3031,-0.307,-0.3066,-0.3078,-0.307,-0.3024,-0.3046,-0.2984,-0.2935,-0.2928,-0.2789,-0.2729,-0.2487,-0.2467,-0.2458,-0.2794,-0.2795,-0.2795,0,-0.2609,-0.266,-0.2687,-0.2715,-0.2796,-0.2831,-0.2881,-0.2956,-0.297,-0.303,-0.3006,-0.3067,-0.3013,-0.3019,-0.2933,-0.2973,-0.283,-0.287,-0.2715,-0.2703,-0.2561,-0.2536,-0.2508,-0.2841,-0.2841,-0.2842,-0.2842,0,-0.2575,-0.2596,-0.2665,-0.2678,-0.2718,-0.2797,-0.2832,-0.2893,-0.2924,-0.2904,-0.2996,-0.2952,-0.2994,-0.2921,-0.2905,-0.2763,-0.281,-0.2711,-0.2664,-0.2587,-0.2568,-0.2512,-0.2546,-0.2835,-0.2837,-0.2838,-0.2839,0,-0.2508,-0.2552,-0.2579,-0.2661,-0.2683,-0.2711,-0.2769,-0.2772,-0.2829,-0.2786,-0.2789,-0.2813,-0.2746,-0.2745,-0.2679,-0.2655,-0.2523,-0.2517,-0.2388,-0.2332,-0.2223,-0.2266,-0.2156,-0.2094,-0.2344,-0.234,-0.2337,0,-0.2473,-0.2477,-0.2541,-0.2538,-0.2567,-0.2615,-0.2621,-0.2708,-0.2685,-0.2682,-0.2617,-0.257,-0.2513,-0.2381,-0.235,-0.2282,-0.2331,-0.2129,-0.2223,-0.2188,-0.2202,-0.2247,-0.2207,-0.205,-0.2045,-0.204,-0.2037,0,-0.2399,-0.2418,-0.2431,-0.242,-0.2424,-0.2434,-0.2443,-0.2414,-0.2469,-0.2439,-0.2364,-0.2329,-0.2224,-0.2123,-0.2033,-0.1999,-0.2086,-0.204,-0.2055,-0.201,-0.2005,-0.1928,-0.2154,-0.2,-0.2003,-0.2006,-0.2008,-0.201,-0.2326,-0.2306,-0.2296,-0.2273,-0.2267,-0.2213,-0.2161,-0.2168,-0.2117,-0.2033,-0.2094,-0.2014,-0.197,-0.1857,-0.1794,-0.1686,-0.1794,-0.1684,-0.1741,-0.179,-0.174,-0.1852,-0.1629,-0.1631,-0.1632,-0.1633,-0.1634,0,-0.2229,-0.2188,-0.2145,-0.2083,-0.1986,-0.2048,-0.199,-0.1908,-0.1803,-0.1807,-0.1758,-0.1725,-0.1612,-0.1596,-0.151,-0.1434,-0.1427,-0.1412,-0.1483,-0.146,-0.158,-0.158,-0.1275,-0.1275,-0.1275,-0.1275,-0.1275,-0.1275,-0.2164,-0.2077,-0.2028,-0.1805,-0.1749,-0.1587,-0.1523,-0.146,-0.1437,-0.1365,-0.137,-0.1421,-0.1448,-0.1548,-0.1434,-0.1348,-0.1348,-0.1277,-0.1328,-0.1466,-0.1498,-0.1529,-0.1538,-0.1228,-0.1228,-0.1148,-0.1148,-0.1148]},{"header":{"parameterUnit":"m.s-1","parameterCategory":2,"la1":30.2991,"la2":30.254,"lo1":-89.0895,"lo2":-89.0444,"dy":0.0017,"dx":0.0017,"nx":28,"ny":28,"refTime":"2024-12-01T09:00:00:Z","depth":"0","parameterNumber":3,"parameterNumberName":"V-component_of_CURRENTS"},"data":[0,0,0,0,0,0,0,0,0,0,0,0,0,0,0,0,0,0,0,0,0,0,0,0,0,0,0,0,0,0,0,0,0,0,0,0,0,0,0,0,0,0,0,0,0,0,0,0,0,0,0,0,0,0,0,0,0,0,-0.0527,-0.0526,0,-0.0476,-0.0476,-0.0475,-0.0466,-0.0466,-0.0467,-0.0467,-0.0399,-0.0397,-0.0395,0,0,0,0,0,0,0,0,0,0,0,0,0,-0.0641,-0.0638,-0.0527,-0.0526,-0.0526,-0.0476,-0.0476,-0.0475,-0.0466,-0.0466,-0.0467,-0.0467,-0.04,-0.0398,-0.0395,0,0,0,0,0,0,0,0,0,0,0,0,0,-0.0591,-0.0638,-0.0527,-0.0515,-0.0514,-0.0477,-0.0476,-0.0475,-0.0466,-0.0466,-0.0467,-0.0467,-0.0401,-0.0398,-0.0395,-0.0361,0,0,-0.0385,-0.0383,0,0,0,0,0,0,0,0,-0.0593,-0.0586,-0.0517,-0.0516,-0.0514,-0.0478,-0.0491,-0.0436,-0.0465,-0.0484,-0.0467,-0.0468,-0.0424,-0.0419,-0.0408,-0.0358,-0.0355,-0.0384,-0.0382,-0.0381,-0.038,0,0,0,0,0,0,0,-0.0597,-0.0589,-0.0507,-0.0517,-0.0515,-0.0521,-0.0515,-0.0481,-0.045,-0.0482,-0.0481,-0.0476,-0.0423,-0.0411,-0.0406,-0.0354,-0.0384,-0.0381,-0.0379,-0.0378,-0.0271,-0.027,0,0,0,0,0,0,-0.0601,-0.0591,-0.0508,-0.0505,-0.0556,-0.0519,-0.0511,-0.0489,-0.0451,-0.0446,-0.0475,-0.0476,-0.0416,-0.041,-0.0404,-0.0371,-0.0381,-0.0378,-0.0376,-0.0272,-0.0271,-0.027,0,0,0,0,0,0,-0.0603,-0.0593,-0.051,-0.0549,-0.0539,-0.0516,-0.0491,-0.0488,-0.0474,-0.0446,-0.0441,-0.0465,-0.0417,-0.0408,-0.0373,-0.0368,-0.0376,-0.0373,-0.0273,-0.0271,-0.027,-0.0299,0,0,0,0,0,0,-0.0606,-0.0594,-0.058,-0.0548,-0.0537,-0.0484,-0.049,-0.0486,-0.047,-0.0469,-0.0435,-0.043,-0.0416,-0.0378,-0.037,-0.0363,-0.0371,-0.0274,-0.0272,-0.0271,-0.0299,-0.0299,-0.0298,0,0,0,0,0,-0.061,-0.0585,-0.0579,-0.0569,-0.0517,-0.0483,-0.0477,-0.0464,-0.0469,-0.0456,-0.0438,-0.0431,-0.0362,-0.0375,-0.0365,-0.0358,-0.0275,-0.0273,-0.0271,-0.0299,-0.0299,-0.0298,0,0,0,0,0,0,-0.064,-0.0581,-0.0574,-0.0536,-0.0511,-0.0481,-0.0468,-0.0461,-0.0436,-0.0438,-0.0418,-0.041,-0.0377,-0.0357,-0.0372,-0.032,-0.0317,-0.0313,-0.0342,-0.0341,-0.0341,-0.0367,-0.0368,0,0,0,0,0,-0.0637,-0.0598,-0.0557,-0.0533,-0.0514,-0.0491,-0.0477,-0.0468,-0.0443,-0.0434,-0.0413,-0.0387,-0.0359,-0.0345,-0.0314,-0.0284,-0.0259,-0.0271,-0.0271,-0.0271,-0.0284,-0.0253,-0.0252,-0.0263,-0.0263,-0.0263,0,0,-0.0652,-0.0609,-0.0595,-0.0537,-0.0516,-0.0501,-0.0484,-0.0458,-0.0456,-0.0428,-0.0413,-0.0382,-0.0349,-0.032,-0.0303,-0.0305,-0.0245,-0.0268,-0.0269,-0.0282,-0.0251,-0.025,-0.0249,-0.0262,-0.0262,-0.0262,0,0,-0.0662,-0.0614,-0.0589,-0.0563,-0.0522,-0.0502,-0.0495,-0.0459,-0.0447,-0.0422,-0.0406,-0.0373,-0.033,-0.031,-0.0294,-0.0269,-0.0243,-0.0255,-0.0279,-0.0248,-0.0248,-0.0247,-0.018,-0.0173,-0.0259,-0.0259,-0.0259,0,-0.0693,-0.0648,-0.0583,-0.0559,-0.0554,-0.0506,-0.0507,-0.0478,-0.0443,-0.0437,-0.0421,-0.0363,-0.0329,-0.0304,-0.0297,-0.0271,-0.024,-0.0287,-0.025,-0.0249,-0.0248,-0.018,-0.0172,-0.026,-0.026,-0.026,-0.0259,0,-0.0686,-0.0661,-0.0645,-0.06,-0.0578,-0.0567,-0.0524,-0.0502,-0.0482,-0.0463,-0.0426,-0.0374,-0.0347,-0.0321,-0.0302,-0.0277,-0.025,-0.0253,-0.0259,-0.0249,-0.0176,-0.0168,-0.0261,-0.0261,-0.0261,-0.026,0,0,-0.076,-0.0662,-0.0665,-0.0662,-0.0605,-0.0595,-0.057,-0.0546,-0.0545,-0.049,-0.0487,-0.0422,-0.0393,-0.0373,-0.0334,-0.0303,-0.0247,-0.0281,-0.0278,-0.0226,-0.0153,-0.0098,-0.0082,-0.0252,-0.0251,-0.0251,-0.0093,0,-0.0797,-0.0764,-0.0705,-0.0716,-0.0709,-0.0658,-0.0647,-0.0615,-0.0577,-0.0552,-0.0485,-0.0462,-0.0412,-0.04,-0.0356,-0.0278,-0.0232,-0.0288,-0.016,-0.0155,-0.0119,-0.0074,-0.0027,0.0119,-0.0085,-0.0083,-0.0082,0,-0.083,-0.0804,-0.08,-0.078,-0.0774,-0.0772,-0.0756,-0.0737,-0.0673,-0.0644,-0.0594,-0.0541,-0.0468,-0.0439,-0.0294,-0.0334,-0.0251,-0.0185,-0.0178,-0.0119,-0.0086,0.0072,0.0142,0.0302,-0.0069,-0.007,-0.0071,0,-0.0921,-0.0889,-0.0889,-0.0881,-0.0834,-0.0839,-0.0824,-0.0773,-0.0759,-0.0704,-0.068,-0.0593,-0.0532,-0.0433,-0.0273,-0.0292,-0.0109,-0.0117,0.0019,0.0026,0.0095,0.0106,0.0318,-0.0031,-0.0031,-0.0032,-0.0032,0,-0.0985,-0.1004,-0.0934,-0.0938,-0.0972,-0.0914,-0.0936,-0.0903,-0.0848,-0.0823,-0.0734,-0.0682,-0.0533,-0.0402,-0.0281,-0.008,-0.0105,0.0028,0.0065,0.0092,0.0101,0.0263,0.0318,-0.0026,-0.0027,-0.0028,-0.0029,0,-0.1083,-0.1029,-0.1044,-0.1006,-0.1006,-0.1032,-0.1009,-0.1013,-0.0945,-0.0903,-0.0886,-0.0736,-0.0556,-0.0383,-0.019,-0.0071,0.0201,0.0159,0.0203,0.0242,0.0494,0.0544,0.0774,0.087,0.0332,0.0334,0.0336,0,-0.1129,-0.113,-0.1105,-0.112,-0.1108,-0.1128,-0.1135,-0.108,-0.1058,-0.0924,-0.0896,-0.072,-0.0573,-0.0241,-0.0017,0.0226,0.0326,0.0405,0.0366,0.0534,0.0617,0.0645,0.0709,0.0472,0.0475,0.0477,0.0479,0,-0.1225,-0.1198,-0.1191,-0.1211,-0.1228,-0.1242,-0.1231,-0.1223,-0.1125,-0.1057,-0.0906,-0.0781,-0.0442,-0.0135,0.0183,0.0324,0.0535,0.0459,0.0618,0.0735,0.0795,0.0896,0.0368,0.05,0.0497,0.0496,0.0495,0.0494,-0.1301,-0.1311,-0.1278,-0.1303,-0.1319,-0.1315,-0.1307,-0.1262,-0.1199,-0.1032,-0.0913,-0.0663,-0.023,0.0228,0.0395,0.0775,0.0721,0.088,0.093,0.0946,0.1027,0.056,0.073,0.073,0.0729,0.0728,0.0728,0,-0.1401,-0.1368,-0.1378,-0.1368,-0.137,-0.1365,-0.1334,-0.128,-0.1183,-0.1004,-0.083,-0.0318,0.0116,0.051,0.1024,0.1233,0.1266,0.1339,0.1394,0.1438,0.1026,0.102,0.1279,0.1279,0.1278,0.1278,0.1278,0.1278,-0.1443,-0.145,-0.1417,-0.1402,-0.1388,-0.1361,-0.1329,-0.1235,-0.1092,-0.0764,-0.0458,-0.0223,0.0342,0.1148,0.1627,0.167,0.1848,0.1838,0.1925,0.1642,0.1603,0.1565,0.1575,0.1946,0.1946,0.2327,0.2331,0.2334]}],[{"header":{"parameterUnit":"m.s-1","parameterCategory":2,"la1":30.2991,"la2":30.254,"lo1":-89.0895,"lo2":-89.0444,"dy":0.0017,"dx":0.0017,"nx":28,"ny":28,"refTime":"2024-12-01T09:00:00:Z","depth":"2","parameterNumber":2,"parameterNumberName":"U-component_of_CURRENTS"},"data":[0,0,0,0,0,0,0,0,0,0,0,0,0,0,0,0,0,0,0,0,0,0,0,0,0,0,0,0,0,0,0,0,0,0,0,0,0,0,0,0,0,0,0,0,0,0,0,0,0,0,0,0,0,0,0,0,0,0,-0.1926,-0.1926,0,-0.1905,-0.1905,-0.1904,-0.1863,-0.1863,-0.1862,-0.1862,-0.1874,-0.1875,-0.1876,0,0,0,0,0,0,0,0,0,0,0,0,0,-0.1865,-0.1866,-0.1926,-0.1926,-0.1926,-0.1905,-0.1905,-0.1904,-0.1863,-0.1863,-0.1862,-0.1862,-0.1874,-0.1875,-0.1876,0,0,0,0,0,0,0,0,0,0,0,0,0,-0.1869,-0.1866,-0.1926,-0.1906,-0.1904,-0.1905,-0.1905,-0.1904,-0.1863,-0.1863,-0.1862,-0.1861,-0.1874,-0.1875,-0.1876,-0.1897,0,0,-0.1879,-0.188,0,0,0,0,0,0,0,0,-0.1869,-0.1871,-0.1909,-0.1908,-0.1906,-0.1889,-0.1887,-0.1904,-0.1863,-0.1875,-0.1862,-0.1861,-0.1885,-0.1885,-0.1877,-0.1897,-0.1898,-0.1879,-0.188,-0.1881,-0.1881,0,0,0,0,0,0,0,-0.1869,-0.1871,-0.1914,-0.1909,-0.1907,-0.1876,-0.1876,-0.189,-0.1882,-0.1874,-0.1872,-0.1876,-0.1884,-0.1876,-0.1877,-0.1898,-0.1879,-0.188,-0.1881,-0.1882,-0.1988,-0.199,0,0,0,0,0,0,-0.1883,-0.1872,-0.1915,-0.1914,-0.1889,-0.1878,-0.1878,-0.1892,-0.1881,-0.188,-0.1876,-0.1874,-0.1875,-0.1876,-0.1878,-0.1931,-0.1881,-0.1882,-0.1882,-0.1986,-0.1989,-0.1991,0,0,0,0,0,0,-0.1882,-0.1888,-0.1916,-0.1894,-0.1896,-0.1881,-0.1897,-0.1892,-0.1894,-0.1883,-0.1881,-0.1884,-0.1874,-0.1876,-0.1906,-0.193,-0.1882,-0.1883,-0.1983,-0.1987,-0.199,-0.2019,0,0,0,0,0,0,-0.1881,-0.1888,-0.1906,-0.1896,-0.1898,-0.1933,-0.1898,-0.1892,-0.1899,-0.1896,-0.189,-0.1889,-0.1874,-0.1905,-0.1907,-0.1931,-0.1884,-0.1981,-0.1985,-0.1989,-0.2015,-0.2023,-0.2029,0,0,0,0,0,-0.1879,-0.1911,-0.1907,-0.1912,-0.1923,-0.1935,-0.1933,-0.1916,-0.19,-0.1912,-0.1908,-0.189,-0.1932,-0.1907,-0.191,-0.1934,-0.1979,-0.1984,-0.1988,-0.2012,-0.2021,-0.2029,0,0,0,0,0,0,-0.1884,-0.191,-0.1905,-0.1941,-0.1945,-0.193,-0.1935,-0.1929,-0.1932,-0.1926,-0.1913,-0.1913,-0.1945,-0.1948,-0.1921,-0.1981,-0.1955,-0.1961,-0.1972,-0.1981,-0.1988,-0.2008,-0.1885,0,0,0,0,0,-0.1898,-0.1922,-0.194,-0.1956,-0.1967,-0.1953,-0.1957,-0.1948,-0.1949,-0.1948,-0.1954,-0.1961,-0.1967,-0.198,-0.1988,-0.2026,-0.2015,-0.2048,-0.2055,-0.206,-0.2082,-0.2065,-0.2071,-0.2007,-0.2007,-0.2007,0,0,-0.1876,-0.1914,-0.1909,-0.1958,-0.1952,-0.1973,-0.1952,-0.1962,-0.198,-0.1952,-0.1987,-0.1983,-0.1982,-0.2013,-0.2029,-0.2019,-0.2078,-0.2066,-0.2071,-0.209,-0.2071,-0.2077,-0.2082,-0.201,-0.2009,-0.2009,0,0,-0.1874,-0.1906,-0.1931,-0.1954,-0.1982,-0.1987,-0.1999,-0.2011,-0.202,-0.205,-0.2032,-0.2056,-0.2073,-0.2082,-0.2083,-0.2144,-0.2108,-0.2146,-0.2201,-0.2184,-0.2188,-0.2192,-0.2193,-0.2197,-0.2155,-0.2155,-0.2155,0,-0.1869,-0.1903,-0.1934,-0.198,-0.1998,-0.2,-0.2027,-0.2041,-0.2062,-0.2086,-0.2069,-0.2109,-0.2106,-0.2144,-0.2161,-0.2158,-0.2143,-0.2159,-0.2189,-0.2192,-0.2196,-0.2196,-0.22,-0.2157,-0.2157,-0.2157,-0.2157,0,-0.1877,-0.1916,-0.1934,-0.1995,-0.2026,-0.2044,-0.2081,-0.2115,-0.2127,-0.2142,-0.2191,-0.2191,-0.2214,-0.222,-0.2204,-0.2242,-0.2222,-0.2187,-0.2157,-0.2203,-0.2202,-0.2205,-0.216,-0.216,-0.2159,-0.2158,0,0,-0.1821,-0.1927,-0.193,-0.1969,-0.2039,-0.2064,-0.2118,-0.2172,-0.2202,-0.2237,-0.2277,-0.2305,-0.2308,-0.2313,-0.2305,-0.2307,-0.2312,-0.2263,-0.2261,-0.2249,-0.2281,-0.2183,-0.2176,-0.2263,-0.2264,-0.2264,-0.2272,0,-0.1814,-0.192,-0.1966,-0.2021,-0.2064,-0.2112,-0.2161,-0.2215,-0.2248,-0.2292,-0.2319,-0.2344,-0.2341,-0.2341,-0.2348,-0.2316,-0.2321,-0.2315,-0.2255,-0.2255,-0.2146,-0.2176,-0.2008,-0.1993,-0.2275,-0.2276,-0.2276,0,-0.1795,-0.1876,-0.1963,-0.206,-0.2082,-0.2117,-0.2202,-0.2247,-0.2317,-0.234,-0.2386,-0.2394,-0.2436,-0.2396,-0.24,-0.2388,-0.235,-0.2325,-0.2323,-0.2226,-0.2161,-0.1994,-0.1987,-0.228,-0.228,-0.228,-0.2279,0,-0.1752,-0.1859,-0.1943,-0.1974,-0.209,-0.213,-0.2179,-0.226,-0.2302,-0.2367,-0.2384,-0.2438,-0.2438,-0.2426,-0.2387,-0.2387,-0.2357,-0.2341,-0.2231,-0.2224,-0.2071,-0.2048,-0.2334,-0.2334,-0.2334,-0.2334,-0.2334,0,-0.174,-0.1787,-0.1926,-0.1967,-0.2027,-0.2116,-0.2172,-0.2228,-0.23,-0.2331,-0.2399,-0.2409,-0.2435,-0.2422,-0.2397,-0.2319,-0.2362,-0.2255,-0.2217,-0.2078,-0.2057,-0.2298,-0.2293,-0.2334,-0.2334,-0.2334,-0.2334,0,-0.168,-0.178,-0.1857,-0.1984,-0.2013,-0.2055,-0.2148,-0.218,-0.2262,-0.2298,-0.2317,-0.2384,-0.2365,-0.2376,-0.2341,-0.2304,-0.2254,-0.2207,-0.2054,-0.1998,-0.2144,-0.2142,-0.2121,-0.2117,-0.2114,-0.2112,-0.211,0,-0.168,-0.1719,-0.1847,-0.1872,-0.1924,-0.1993,-0.2026,-0.2135,-0.2167,-0.2261,-0.2262,-0.2286,-0.2255,-0.2202,-0.2138,-0.2084,-0.2155,-0.1902,-0.1876,-0.2155,-0.2122,-0.2124,-0.2126,-0.1698,-0.1693,-0.1688,-0.1685,0,-0.163,-0.1673,-0.1733,-0.1798,-0.1838,-0.1887,-0.1947,-0.1972,-0.2083,-0.211,-0.2128,-0.2118,-0.2074,-0.1936,-0.1869,-0.1818,-0.1906,-0.1811,-0.2121,-0.177,-0.1754,-0.1722,-0.1738,-0.1646,-0.165,-0.1653,-0.1655,-0.1657,-0.1554,-0.1581,-0.1653,-0.1692,-0.1738,-0.1762,-0.175,-0.1814,-0.1841,-0.1852,-0.1928,-0.1853,-0.1843,-0.165,-0.1561,-0.1504,-0.1645,-0.1587,-0.1601,-0.162,-0.1561,-0.1539,-0.1383,-0.1385,-0.1387,-0.1389,-0.1391,0,-0.1454,-0.1495,-0.1535,-0.1579,-0.1572,-0.1641,-0.1672,-0.1635,-0.1605,-0.1632,-0.1616,-0.1453,-0.1347,-0.1345,-0.1191,-0.1165,-0.1168,-0.1123,-0.1131,-0.1169,-0.1203,-0.1125,-0.083,-0.0829,-0.0827,-0.0826,0,0,-0.1389,-0.1397,-0.1433,-0.1393,-0.1416,-0.1361,-0.1346,-0.1314,-0.1308,-0.1238,-0.1197,-0.1277,-0.1302,-0.1071,-0.1014,-0.0896,-0.1024,-0.0848,-0.1296,-0.1343,-0.1375,-0.1466,-0.1386,0,0,0,0,0]},{"header":{"parameterUnit":"m.s-1","parameterCategory":2,"la1":30.2991,"la2":30.254,"lo1":-89.0895,"lo2":-89.0444,"dy":0.0017,"dx":0.0017,"nx":28,"ny":28,"refTime":"2024-12-01T09:00:00:Z","depth":"2","parameterNumber":3,"parameterNumberName":"V-component_of_CURRENTS"},"data":[0,0,0,0,0,0,0,0,0,0,0,0,0,0,0,0,0,0,0,0,0,0,0,0,0,0,0,0,0,0,0,0,0,0,0,0,0,0,0,0,0,0,0,0,0,0,0,0,0,0,0,0,0,0,0,0,0,0,-0.0075,-0.0075,0,0.0003,0.0004,0.0005,0.0065,0.0065,0.0065,0.0066,0.019,0.0192,0.0195,0,0,0,0,0,0,0,0,0,0,0,0,0,-0.0085,-0.0085,-0.0075,-0.0075,-0.0074,0.0003,0.0004,0.0005,0.0064,0.0065,0.0065,0.0066,0.0189,0.0192,0.0196,0,0,0,0,0,0,0,0,0,0,0,0,0,-0.005,-0.0086,-0.0076,-0.0036,-0.0032,0.0002,0.0004,0.0005,0.0064,0.0065,0.0066,0.0066,0.0188,0.0192,0.0196,0.0211,0,0,0.0209,0.0211,0,0,0,0,0,0,0,0,-0.0052,-0.0049,-0.0043,-0.0039,-0.0034,0.0023,0.0046,0.0076,0.0064,0.003,0.0066,0.0066,0.0137,0.0145,0.016,0.0217,0.0222,0.021,0.0213,0.0214,0.0216,0,0,0,0,0,0,0,-0.0055,-0.0052,-0.0043,-0.0042,-0.0037,0.0008,0.0013,0.0052,0.0081,0.0033,0.0037,0.0043,0.014,0.0156,0.0164,0.0224,0.021,0.0214,0.0216,0.0218,0.0332,0.0332,0,0,0,0,0,0,-0.0073,-0.0055,-0.0045,-0.0041,-0.0043,0.0007,0.0013,0.0006,0.008,0.0091,0.0042,0.0045,0.0148,0.0159,0.0168,0.0188,0.0214,0.0218,0.0221,0.0331,0.0332,0.0332,0,0,0,0,0,0,-0.0074,-0.0074,-0.0048,-0.0046,-0.004,0.0006,-0.0002,0.0007,0.0022,0.0086,0.0098,0.0048,0.0149,0.0162,0.0202,0.0193,0.022,0.0224,0.0331,0.0331,0.0332,0.0228,0,0,0,0,0,0,-0.0075,-0.0075,-0.0086,-0.0048,-0.0041,-0.0038,-0.0003,0.0008,0.0024,0.0029,0.0095,0.0107,0.015,0.0195,0.0206,0.02,0.0228,0.033,0.0331,0.0332,0.0231,0.0225,0.022,0,0,0,0,0,-0.0075,-0.0098,-0.0088,-0.0086,-0.0059,-0.0039,-0.0031,0.0006,0.0023,0.0024,0.0072,0.0105,0.0208,0.0198,0.0212,0.0206,0.033,0.0331,0.0332,0.0234,0.0226,0.022,0,0,0,0,0,0,-0.0106,-0.0093,-0.0081,-0.0098,-0.0074,-0.0029,-0.0026,-0.0001,0.0037,0.0043,0.0105,0.012,0.0152,0.0198,0.0186,0.0245,0.0277,0.028,0.0198,0.0192,0.0186,0.0172,0.0232,0,0,0,0,0,-0.0121,-0.0134,-0.0108,-0.0119,-0.0112,-0.007,-0.0057,-0.0034,0.0004,0.0022,0.0067,0.0122,0.0167,0.0192,0.0238,0.0266,0.0305,0.0276,0.0271,0.0265,0.0266,0.0315,0.0313,0.0335,0.0335,0.0335,0,0,-0.0128,-0.0128,-0.0131,-0.0126,-0.0103,-0.0103,-0.0061,-0.0049,-0.0043,0.0029,0.0051,0.01,0.017,0.0201,0.0221,0.0237,0.0276,0.0266,0.0261,0.0264,0.0315,0.0313,0.0311,0.0336,0.0336,0.0336,0,0,-0.0161,-0.0158,-0.0181,-0.017,-0.0153,-0.0129,-0.0131,-0.0093,-0.0072,-0.0047,0.0009,0.0052,0.0117,0.0165,0.0199,0.0194,0.0243,0.0212,0.0172,0.0219,0.0217,0.0216,0.024,0.0242,0.0211,0.0211,0.0211,0,-0.0175,-0.0203,-0.018,-0.0199,-0.0196,-0.0147,-0.0164,-0.0135,-0.0088,-0.0071,-0.0053,0.0047,0.01,0.0149,0.0148,0.0179,0.0208,0.0183,0.0209,0.0209,0.0209,0.0235,0.0238,0.0206,0.0207,0.0207,0.0208,0,-0.0219,-0.0241,-0.0252,-0.0264,-0.0255,-0.0261,-0.0225,-0.021,-0.0181,-0.0146,-0.0099,-0.0026,0.0037,0.0059,0.0101,0.0136,0.0154,0.0188,0.0215,0.02,0.0228,0.0234,0.0199,0.0201,0.0202,0.0203,0,0,-0.0249,-0.0282,-0.0285,-0.0308,-0.0293,-0.0295,-0.0285,-0.0262,-0.0252,-0.0202,-0.0182,-0.0103,-0.0057,-0.0014,0.0048,0.009,0.011,0.0134,0.0138,0.0138,0.0195,0.0231,0.0241,0.0144,0.0145,0.0146,0.0204,0,-0.029,-0.0361,-0.0351,-0.0392,-0.0421,-0.0379,-0.0374,-0.0342,-0.03,-0.0266,-0.0186,-0.0141,-0.0085,-0.0056,-0.0007,0.0086,0.0123,0.009,0.0228,0.0232,0.0251,0.0249,0.0233,0.0287,0.021,0.0211,0.0212,0,-0.0331,-0.0379,-0.0448,-0.0475,-0.0479,-0.0487,-0.0472,-0.0458,-0.039,-0.0355,-0.0291,-0.0221,-0.0146,-0.0097,0.0036,0.001,0.0093,0.016,0.0165,0.0242,0.0279,0.0298,0.03,0.0221,0.022,0.022,0.0219,0,-0.0385,-0.0436,-0.0504,-0.0514,-0.0536,-0.0545,-0.0538,-0.0487,-0.0476,-0.0404,-0.0384,-0.0281,-0.0227,-0.0116,0.0032,0.0031,0.0178,0.0198,0.0305,0.0307,0.0346,0.0351,0.029,0.029,0.029,0.029,0.029,0,-0.0441,-0.0486,-0.0536,-0.0578,-0.0629,-0.0608,-0.0628,-0.06,-0.0553,-0.0536,-0.0432,-0.0386,-0.0226,-0.0115,0.0009,0.0174,0.0164,0.0298,0.0331,0.0308,0.0309,0.0302,0.0303,0.0292,0.0291,0.0291,0.0291,0,-0.0491,-0.0527,-0.0606,-0.0656,-0.0666,-0.0701,-0.0701,-0.0704,-0.065,-0.0624,-0.0606,-0.0469,-0.0317,-0.0153,0.0039,0.0147,0.0299,0.0363,0.0315,0.0342,0.0393,0.0388,0.0468,0.047,0.0472,0.0473,0.0474,0,-0.053,-0.0583,-0.0676,-0.072,-0.0746,-0.0782,-0.0798,-0.0762,-0.0755,-0.0664,-0.0653,-0.0504,-0.0373,-0.0088,0.0127,0.0341,0.0349,0.0448,0.0454,0.0391,0.0415,0.0407,0.04,0.0451,0.0452,0.0453,0.0454,0,-0.0599,-0.0635,-0.0703,-0.0807,-0.0852,-0.0889,-0.0903,-0.0911,-0.085,-0.08,-0.0693,-0.0581,-0.03,-0.0046,0.0232,0.0358,0.0409,0.0469,0.0431,0.0412,0.0382,0.0403,0.0395,0.046,0.0459,0.0459,0.0458,0.0458,-0.063,-0.0705,-0.0801,-0.0885,-0.094,-0.0979,-0.0991,-0.097,-0.094,-0.0828,-0.0721,-0.051,-0.0285,0.0132,0.0318,0.0494,0.0491,0.0542,0.0537,0.0532,0.0523,0.0497,0.0594,0.0594,0.0594,0.0594,0.0594,0,-0.0665,-0.0761,-0.0864,-0.0965,-0.1026,-0.1035,-0.1046,-0.1016,-0.0956,-0.0809,-0.0663,-0.0382,-0.0096,0.0137,0.0424,0.0585,0.0564,0.0606,0.0549,0.0542,0.0537,0.0525,0.0599,0.0599,0.06,0.06,0,0,-0.0683,-0.081,-0.0884,-0.1012,-0.107,-0.1109,-0.1105,-0.1029,-0.0913,-0.0739,-0.056,-0.0342,-0.0063,0.0138,0.0333,0.048,0.0468,0.0491,0.0473,0.0376,0.0369,0.0489,0.0464,0,0,0,0,0]}],[{"header":{"parameterUnit":"m.s-1","parameterCategory":2,"la1":30.2991,"la2":30.254,"lo1":-89.0895,"lo2":-89.0444,"dy":0.0017,"dx":0.0017,"nx":28,"ny":28,"refTime":"2024-12-01T09:00:00:Z","depth":"4","parameterNumber":2,"parameterNumberName":"U-component_of_CURRENTS"},"data":[0,0,0,0,0,0,0,0,0,0,0,0,0,0,0,0,0,0,0,0,0,0,0,0,0,0,0,0,0,0,0,0,0,0,0,0,0,0,0,0,0,0,0,0,0,0,0,0,0,0,0,0,0,0,0,0,0,0,-0.1222,-0.1222,0,-0.1279,-0.1279,-0.128,-0.1308,-0.1308,-0.1309,-0.1309,-0.1349,-0.135,-0.1351,0,0,0,0,0,0,0,0,0,0,0,0,0,-0.1113,-0.1115,-0.1222,-0.1223,-0.1223,-0.1278,-0.1279,-0.128,-0.1308,-0.1308,-0.1309,-0.1309,-0.1349,-0.135,-0.1351,0,0,0,0,0,0,0,0,0,0,0,0,0,-0.1163,-0.1116,-0.1222,-0.1245,-0.1248,-0.1278,-0.1279,-0.128,-0.1308,-0.1308,-0.1309,-0.1309,-0.1349,-0.135,-0.1351,-0.1355,0,0,-0.1356,-0.1356,0,0,0,0,0,0,0,0,-0.116,-0.1167,-0.1241,-0.1244,-0.1247,-0.1288,-0.1256,-0.1305,-0.1308,-0.1284,-0.1309,-0.1309,-0.1328,-0.1331,-0.1339,-0.1357,-0.1359,-0.1356,-0.1357,-0.1357,-0.1358,0,0,0,0,0,0,0,-0.1157,-0.1164,-0.1243,-0.1242,-0.1246,-0.1245,-0.1252,-0.1265,-0.1302,-0.1286,-0.1288,-0.1297,-0.133,-0.1338,-0.1341,-0.136,-0.1356,-0.1357,-0.1358,-0.1359,-0.1444,-0.1446,0,0,0,0,0,0,-0.1154,-0.1161,-0.1241,-0.1244,-0.1205,-0.1247,-0.1255,-0.1273,-0.1303,-0.1308,-0.1297,-0.1298,-0.1336,-0.1339,-0.1342,-0.1407,-0.1357,-0.1359,-0.1359,-0.1443,-0.1444,-0.1446,0,0,0,0,0,0,-0.1152,-0.1161,-0.1239,-0.1205,-0.1215,-0.1249,-0.1269,-0.1274,-0.1306,-0.1312,-0.1316,-0.1326,-0.1336,-0.134,-0.1377,-0.1406,-0.1359,-0.1361,-0.1441,-0.1443,-0.1445,-0.1498,0,0,0,0,0,0,-0.1149,-0.116,-0.1177,-0.1205,-0.1217,-0.1275,-0.1269,-0.1275,-0.131,-0.1313,-0.1337,-0.134,-0.1336,-0.1375,-0.1378,-0.1407,-0.1362,-0.1439,-0.1442,-0.1445,-0.1495,-0.1502,-0.1508,0,0,0,0,0,-0.1145,-0.1165,-0.1178,-0.1188,-0.1238,-0.1277,-0.1283,-0.1306,-0.1312,-0.1334,-0.135,-0.1341,-0.1394,-0.1377,-0.1381,-0.1411,-0.1438,-0.1441,-0.1444,-0.1492,-0.1501,-0.1508,0,0,0,0,0,0,-0.1128,-0.1171,-0.1185,-0.1219,-0.1255,-0.1282,-0.1305,-0.132,-0.1351,-0.1358,-0.1359,-0.1364,-0.1406,-0.1403,-0.1384,-0.1444,-0.1415,-0.1419,-0.145,-0.1458,-0.1465,-0.1461,-0.1363,0,0,0,0,0,-0.1132,-0.1162,-0.1201,-0.1231,-0.1252,-0.1283,-0.1304,-0.1323,-0.135,-0.1365,-0.1383,-0.1401,-0.1418,-0.1435,-0.1448,-0.1483,-0.1481,-0.1505,-0.1512,-0.1517,-0.1517,-0.1541,-0.155,-0.1457,-0.1457,-0.1457,0,0,-0.113,-0.1162,-0.1176,-0.123,-0.1259,-0.1297,-0.1297,-0.134,-0.1374,-0.1364,-0.1418,-0.1426,-0.1433,-0.1471,-0.149,-0.1475,-0.1546,-0.1521,-0.1526,-0.1523,-0.1545,-0.1554,-0.1562,-0.1459,-0.1458,-0.1458,0,0,-0.1143,-0.1177,-0.1207,-0.1243,-0.1297,-0.132,-0.1339,-0.1385,-0.141,-0.1458,-0.1457,-0.1486,-0.152,-0.1529,-0.1536,-0.1589,-0.1579,-0.1598,-0.1632,-0.1656,-0.1663,-0.167,-0.1689,-0.1697,-0.1603,-0.1603,-0.1603,0,-0.114,-0.1189,-0.1221,-0.1264,-0.1298,-0.1334,-0.1376,-0.1408,-0.146,-0.1483,-0.1484,-0.1538,-0.1546,-0.1583,-0.1602,-0.1605,-0.1614,-0.16,-0.1664,-0.167,-0.1676,-0.1694,-0.1702,-0.1606,-0.1606,-0.1606,-0.1605,0,-0.1174,-0.1222,-0.1246,-0.1314,-0.1352,-0.1397,-0.1445,-0.1488,-0.1521,-0.1547,-0.16,-0.1611,-0.164,-0.1651,-0.1643,-0.169,-0.1683,-0.1668,-0.1641,-0.1688,-0.1705,-0.1712,-0.161,-0.1609,-0.1608,-0.1608,0,0,-0.114,-0.1248,-0.1259,-0.1303,-0.1385,-0.1419,-0.1483,-0.1545,-0.1588,-0.1631,-0.1683,-0.171,-0.1714,-0.1722,-0.172,-0.174,-0.1792,-0.1725,-0.1725,-0.174,-0.1847,-0.1694,-0.1687,-0.179,-0.1791,-0.1792,-0.1845,0,-0.1159,-0.1246,-0.1296,-0.1377,-0.1423,-0.1483,-0.1539,-0.1598,-0.1646,-0.1705,-0.1724,-0.1769,-0.1742,-0.1764,-0.178,-0.1792,-0.1812,-0.1779,-0.1801,-0.1802,-0.1656,-0.169,-0.1797,-0.185,-0.1852,-0.1853,-0.1854,0,-0.1171,-0.1231,-0.1313,-0.1418,-0.1444,-0.1496,-0.1591,-0.1646,-0.1728,-0.1765,-0.1808,-0.1827,-0.1868,-0.1839,-0.1876,-0.1858,-0.1857,-0.1858,-0.186,-0.1699,-0.1661,-0.1791,-0.1867,-0.1866,-0.1865,-0.1864,-0.1863,0,-0.1125,-0.1241,-0.1308,-0.1345,-0.1463,-0.1511,-0.1575,-0.1662,-0.1716,-0.1806,-0.1851,-0.1894,-0.1928,-0.1936,-0.1924,-0.1917,-0.1956,-0.1946,-0.1808,-0.1798,-0.1898,-0.189,-0.1971,-0.1971,-0.1971,-0.1971,-0.1971,0,-0.1116,-0.1172,-0.1297,-0.1331,-0.141,-0.1498,-0.1582,-0.1649,-0.1751,-0.1804,-0.1873,-0.1906,-0.1954,-0.1974,-0.1958,-0.189,-0.1981,-0.1813,-0.1797,-0.1921,-0.1915,-0.1903,-0.1895,-0.1973,-0.1973,-0.1972,-0.1972,0,-0.1055,-0.1141,-0.1218,-0.1346,-0.139,-0.1443,-0.1584,-0.1636,-0.1742,-0.1817,-0.185,-0.1939,-0.1946,-0.1967,-0.1985,-0.1914,-0.188,-0.1833,-0.1968,-0.196,-0.1708,-0.1702,-0.17,-0.1695,-0.1691,-0.1688,-0.1685,0,-0.1033,-0.1067,-0.1204,-0.1246,-0.1309,-0.1408,-0.147,-0.1608,-0.1662,-0.1804,-0.1824,-0.1887,-0.1915,-0.1824,-0.1855,-0.1815,-0.178,-0.1769,-0.1729,-0.1693,-0.1679,-0.168,-0.168,-0.1678,-0.1677,-0.1675,-0.1674,0,-0.0971,-0.1025,-0.1085,-0.1174,-0.1249,-0.1334,-0.1436,-0.1473,-0.1615,-0.1727,-0.174,-0.1737,-0.1741,-0.1725,-0.1697,-0.1666,-0.1781,-0.1724,-0.1732,-0.1695,-0.1666,-0.1656,-0.1661,-0.1659,-0.1662,-0.1663,-0.1664,0,-0.091,-0.0935,-0.1014,-0.1086,-0.1179,-0.1237,-0.1307,-0.1371,-0.1445,-0.1601,-0.1592,-0.1647,-0.1721,-0.1648,-0.1623,-0.1574,-0.1549,-0.1502,-0.1522,-0.1539,-0.1454,-0.1391,-0.1286,0,0,0,0,0,-0.0834,-0.0858,-0.0921,-0.1001,-0.1093,-0.1147,-0.1274,-0.1346,-0.1484,-0.1446,-0.1518,-0.1503,-0.1468,-0.1501,-0.1411,-0.1546,-0.1557,-0.1438,-0.1515,-0.1577,-0.1594,-0.1504,0,0,0,0,0,0,-0.0781,-0.0829,-0.0881,-0.0918,-0.0955,-0.1045,-0.112,-0.1213,-0.1206,-0.1334,-0.1316,-0.14,-0.1381,-0.148,-0.1374,-0.1381,-0.1396,-0.1474,-0.147,-0.1567,-0.1583,-0.1597,-0.151,0,0,0,0,0]},{"header":{"parameterUnit":"m.s-1","parameterCategory":2,"la1":30.2991,"la2":30.254,"lo1":-89.0895,"lo2":-89.0444,"dy":0.0017,"dx":0.0017,"nx":28,"ny":28,"refTime":"2024-12-01T09:00:00:Z","depth":"4","parameterNumber":3,"parameterNumberName":"V-component_of_CURRENTS"},"data":[0,0,0,0,0,0,0,0,0,0,0,0,0,0,0,0,0,0,0,0,0,0,0,0,0,0,0,0,0,0,0,0,0,0,0,0,0,0,0,0,0,0,0,0,0,0,0,0,0,0,0,0,0,0,0,0,0,0,-0.006,-0.0059,0,-0.0023,-0.0023,-0.0023,0.0007,0.0008,0.0008,0.0008,0.0067,0.0068,0.007,0,0,0,0,0,0,0,0,0,0,0,0,0,-0.0061,-0.0061,-0.006,-0.0059,-0.0059,-0.0023,-0.0023,-0.0023,0.0007,0.0008,0.0008,0.0008,0.0067,0.0068,0.007,0,0,0,0,0,0,0,0,0,0,0,0,0,-0.0046,-0.0061,-0.006,-0.0039,-0.0037,-0.0024,-0.0023,-0.0022,0.0007,0.0008,0.0008,0.0009,0.0066,0.0068,0.007,0.0071,0,0,0.0076,0.0076,0,0,0,0,0,0,0,0,-0.0047,-0.0046,-0.0043,-0.0041,-0.0038,-0.0012,-0.0002,0.001,0.0007,-0.001,0.0008,0.0009,0.0043,0.0046,0.0051,0.0074,0.0076,0.0076,0.0077,0.0078,0.0078,0,0,0,0,0,0,0,-0.0048,-0.0048,-0.0046,-0.0042,-0.004,-0.0017,-0.0015,0.0001,0.0013,-0.0008,-0.0006,-0.0002,0.0044,0.0049,0.0053,0.0077,0.0076,0.0077,0.0078,0.0079,0.0112,0.0112,0,0,0,0,0,0,-0.0055,-0.0049,-0.0047,-0.0044,-0.0041,-0.0018,-0.0016,-0.0021,0.0013,0.0018,-0.0002,-0.0001,0.0046,0.0051,0.0055,0.0064,0.0078,0.0079,0.008,0.0113,0.0112,0.0112,0,0,0,0,0,0,-0.0056,-0.0056,-0.0048,-0.0045,-0.0042,-0.0019,-0.0025,-0.0021,-0.0013,0.0017,0.0023,0.0001,0.0047,0.0053,0.0069,0.0066,0.008,0.0082,0.0113,0.0113,0.0112,0.0078,0,0,0,0,0,0,-0.0056,-0.0056,-0.0063,-0.0046,-0.0043,-0.0045,-0.0025,-0.002,-0.0011,-0.0008,0.0022,0.0028,0.0047,0.0066,0.007,0.0069,0.0083,0.0113,0.0113,0.0112,0.0079,0.0077,0.0074,0,0,0,0,0,-0.0056,-0.007,-0.0064,-0.0064,-0.0053,-0.0046,-0.0043,-0.0024,-0.0011,-0.0014,0.0009,0.0027,0.0066,0.0067,0.0073,0.0072,0.0114,0.0113,0.0112,0.0081,0.0077,0.0074,0,0,0,0,0,0,-0.0073,-0.0067,-0.0061,-0.0072,-0.0061,-0.0041,-0.004,-0.0026,-0.001,-0.0007,0.0024,0.0031,0.0043,0.0061,0.0061,0.008,0.0093,0.0093,0.0067,0.0064,0.0061,0.0053,0.0085,0,0,0,0,0,-0.0081,-0.009,-0.0077,-0.0085,-0.0082,-0.0062,-0.0056,-0.0044,-0.0027,-0.0019,0.0003,0.0026,0.0045,0.0057,0.0073,0.0084,0.0113,0.0087,0.0084,0.0082,0.0079,0.0129,0.0131,0.011,0.011,0.011,0,0,-0.0088,-0.0087,-0.0092,-0.0089,-0.0079,-0.0084,-0.0057,-0.0053,-0.0053,-0.0015,-0.0008,0.0016,0.0044,0.0056,0.0063,0.0072,0.0101,0.0081,0.0079,0.0078,0.0129,0.0131,0.0133,0.011,0.011,0.011,0,0,-0.011,-0.0109,-0.0123,-0.012,-0.0111,-0.01,-0.0101,-0.0083,-0.007,-0.0062,-0.0033,-0.001,0.0014,0.0038,0.0053,0.0045,0.0083,0.0049,0.0033,0.0082,0.0084,0.0087,0.0118,0.0124,0.0051,0.0051,0.0051,0,-0.0119,-0.0139,-0.0125,-0.0137,-0.014,-0.0111,-0.0126,-0.011,-0.0088,-0.0077,-0.0066,-0.0018,0.0005,0.0032,0.0028,0.0039,0.0069,0.0043,0.0079,0.0082,0.0085,0.0117,0.0124,0.0049,0.0049,0.005,0.005,0,-0.0148,-0.0167,-0.0174,-0.0184,-0.0183,-0.0192,-0.0172,-0.0164,-0.0145,-0.0123,-0.0094,-0.0056,-0.0025,-0.0013,0.0004,0.0036,0.005,0.0068,0.0088,0.0085,0.0119,0.0126,0.0047,0.0047,0.0048,0.0048,0,0,-0.0164,-0.0192,-0.0195,-0.0216,-0.0212,-0.0218,-0.0214,-0.0203,-0.0196,-0.0161,-0.0145,-0.0104,-0.007,-0.0051,-0.0016,0.0025,0.0068,0.0052,0.0056,0.0083,0.0168,0.0155,0.0162,0.0099,0.0101,0.0102,0.018,0,-0.0192,-0.0239,-0.0237,-0.0277,-0.0301,-0.028,-0.0281,-0.0262,-0.0233,-0.0209,-0.0149,-0.0122,-0.0087,-0.007,-0.0021,0.0042,0.0088,0.0045,0.0166,0.0169,0.0159,0.017,0.0106,0.0186,0.0187,0.0189,0.019,0,-0.0218,-0.0252,-0.0303,-0.0338,-0.0344,-0.0358,-0.0355,-0.035,-0.0299,-0.0274,-0.0221,-0.017,-0.0109,-0.0076,0.0043,0.0016,0.0087,0.0142,0.0147,0.0152,0.017,0.0191,0.0204,0.0203,0.0201,0.0201,0.02,0,-0.0247,-0.0294,-0.0343,-0.0355,-0.0385,-0.0398,-0.0403,-0.037,-0.0366,-0.0309,-0.0293,-0.0204,-0.0163,-0.0059,0.0055,0.0053,0.019,0.0204,0.0263,0.0262,0.0266,0.0263,0.0299,0.0299,0.0298,0.0298,0.0298,0,-0.0279,-0.0317,-0.0365,-0.0395,-0.0446,-0.0441,-0.0466,-0.0452,-0.0422,-0.0412,-0.0328,-0.0289,-0.0153,-0.0056,0.0048,0.0174,0.0191,0.0261,0.0286,0.0248,0.0242,0.0271,0.0267,0.0301,0.0301,0.03,0.0299,0,-0.03,-0.0331,-0.0397,-0.0449,-0.0466,-0.05,-0.0526,-0.0534,-0.0498,-0.0481,-0.0465,-0.0353,-0.0225,-0.0087,0.0082,0.0156,0.0281,0.0327,0.0265,0.0285,0.0321,0.0314,0.0392,0.0392,0.0392,0.0392,0.0392,0,-0.0313,-0.0352,-0.0441,-0.0486,-0.0515,-0.056,-0.0587,-0.0576,-0.0575,-0.0511,-0.05,-0.0379,-0.0288,-0.0058,0.0082,0.0275,0.0307,0.036,0.035,0.0316,0.0333,0.0325,0.0318,0.0393,0.0393,0.0393,0.0393,0,-0.0342,-0.0378,-0.0435,-0.0533,-0.0587,-0.0637,-0.0667,-0.0672,-0.0641,-0.0616,-0.0509,-0.038,-0.0234,-0.0055,0.0094,0.0236,0.0314,0.0363,0.0363,0.0354,0.0319,0.0333,0.0326,0.0394,0.0394,0.0394,0.0394,0,-0.0354,-0.0406,-0.0489,-0.0571,-0.0646,-0.0693,-0.0703,-0.0684,-0.0674,-0.0591,-0.0554,-0.0382,-0.0279,-0.0074,0.0066,0.0196,0.0228,0.0262,0.0268,0.0269,0.0207,0.0143,0.0187,0,0,0,0,0,-0.0355,-0.0424,-0.0517,-0.0614,-0.0689,-0.0729,-0.0749,-0.0741,-0.0707,-0.0637,-0.0591,-0.0445,-0.0219,-0.0113,0.0017,0.0052,0.0231,0.0205,0.0268,0.0398,0.0397,0.0344,0,0,0,0,0,0,-0.036,-0.0449,-0.052,-0.0634,-0.07,-0.0771,-0.0784,-0.0759,-0.0701,-0.0643,-0.0513,-0.0435,-0.0209,-0.0297,0.0012,0.0051,0.0104,0.0316,0.0319,0.0399,0.0398,0.0397,0.0342,0,0,0,0,0]}]]